Laconia, NH

2:30 AM EST on January 17, 2018 (GMT -0500)
Laconia Municipal

Weather History for KLCI - April, 2013

Change the Weather History Date:

Saturday, April 6, 2013

  Actual Average Record
Temperature  
Mean Temperature 32 °F -  
Max Temperature 41 °F 49 °F 70 °F (1991)
Min Temperature 24 °F 32 °F 12 °F (1995)
Degree Days  
Heating Degree Days 32    
Moisture  
Dew Point 5 °F    
Average Humidity 34    
Maximum Humidity 51    
Minimum Humidity 18    
Precipitation  
Precipitation 0.00 in - - ()
Sea Level Pressure  
Sea Level Pressure 30.14 in    
Wind  
Wind Speed 11 mph (WNW)    
Max Wind Speed 23 mph    
Max Gust Speed 36 mph    
Visibility 10 miles    
Events      
Averages and records for this station are not official NWS values.
T = Trace of Precipitation, MM = Missing Value Source: NWS Daily Summary

Daily Weather History Graph

Daily Weather History Graph

Search for Another Location

Airport or City:

Trip Planner

Search our weather history database for the weather conditions in past years. The results will help you decide how hot, cold, wet, or windy it might be!

Date:

Astronomy

Apr. 06, 2013 Rise Set
Actual Time 6:18 AM EDT 7:18 PM EDT
Civil Twilight 5:48 AM EDT 7:47 PM EDT
Nautical Twilight 5:14 AM EDT 8:22 PM EDT
Astronomical Twilight 4:37 AM EDT 8:59 PM EDT
Moon 4:06 AM EDT (4/6) 3:38 PM EDT (4/6)
Length of Visible Light 13h 58m
Length of Day
13h 00m
Waning Crescent, 15% of the Moon is Illuminated
Apr 6
Waning Crescent
Apr 10
New
Apr 18
First Quarter
Apr 25
Full
May 2
Last Quarter

Hourly Weather History & Observations

Time (EDT) Temp. Windchill Dew Point Humidity Pressure Visibility Wind Dir Wind Speed Gust Speed Precip Events Conditions
12:15 AM 33.8 °F 27.0 °F 15.8 °F 48% 29.87 in 10.0 mi WNW 8.1 mph 19.6 mph N/A   Clear
12:35 AM 33.8 °F 25.8 °F 14.0 °F 44% 29.88 in 10.0 mi West 10.4 mph - N/A   Clear
12:55 AM 32.0 °F 24.2 °F 12.2 °F 44% 29.89 in 10.0 mi WNW 9.2 mph 18.4 mph N/A   Clear
1:15 AM 32.0 °F 24.2 °F 10.4 °F 41% 29.90 in 10.0 mi WNW 9.2 mph 19.6 mph N/A   Scattered Clouds
1:35 AM 32.0 °F 24.2 °F 10.4 °F 41% 29.90 in 10.0 mi West 9.2 mph 16.1 mph N/A   Scattered Clouds
1:55 AM 30.2 °F 21.3 °F 10.4 °F 44% 29.90 in 10.0 mi West 10.4 mph 17.3 mph N/A   Clear
2:15 AM 30.2 °F 23.4 °F 10.4 °F 44% 29.91 in 10.0 mi WNW 6.9 mph - N/A   Scattered Clouds
2:35 AM 30.2 °F 23.4 °F 12.2 °F 47% 29.92 in 10.0 mi NW 6.9 mph - N/A   Mostly Cloudy
2:55 AM 30.2 °F 23.4 °F 14.0 °F 51% 29.92 in 10.0 mi NW 6.9 mph - N/A   Mostly Cloudy
3:15 AM 30.2 °F 21.3 °F 14.0 °F 51% 29.93 in 10.0 mi WNW 10.4 mph - N/A   Mostly Cloudy
3:35 AM 30.2 °F 19.3 °F 8.6 °F 40% 29.94 in 10.0 mi WNW 15.0 mph 31.1 mph N/A   Scattered Clouds
3:55 AM 28.4 °F 17.5 °F 5.0 °F 37% 29.95 in 10.0 mi WNW 13.8 mph 24.2 mph N/A   Clear
4:15 AM 28.4 °F 18.5 °F 5.0 °F 37% 29.96 in 10.0 mi WNW 11.5 mph 20.7 mph N/A   Clear
4:35 AM 28.4 °F 17.5 °F 6.8 °F 40% 29.98 in 10.0 mi WNW 13.8 mph 24.2 mph N/A   Partly Cloudy
4:55 AM 28.4 °F 17.0 °F 6.8 °F 40% 29.99 in 10.0 mi WNW 15.0 mph 21.9 mph N/A   Clear
5:15 AM 28.4 °F 17.0 °F 6.8 °F 40% 30.01 in 10.0 mi WNW 15.0 mph 29.9 mph N/A   Mostly Cloudy
5:35 AM 26.6 °F 13.1 °F 10.4 °F 51% 30.04 in 10.0 mi NW 19.6 mph 27.6 mph N/A   Overcast
5:55 AM 26.6 °F 14.7 °F 6.8 °F 43% 30.05 in 10.0 mi NW 15.0 mph 25.3 mph N/A   Mostly Cloudy
6:15 AM 24.8 °F 12.4 °F 3.2 °F 40% 30.07 in 10.0 mi NW 15.0 mph 29.9 mph N/A   Partly Cloudy
6:35 AM 24.8 °F 13.4 °F 3.2 °F 40% 30.07 in 10.0 mi WNW 12.7 mph 26.5 mph N/A   Partly Cloudy
6:55 AM 24.8 °F 11.1 °F 3.2 °F 40% 30.08 in 10.0 mi NW 18.4 mph 31.1 mph N/A   Clear
7:15 AM 24.8 °F 13.4 °F 3.2 °F 40% 30.09 in 10.0 mi WNW 12.7 mph 32.2 mph N/A   Clear
7:35 AM 26.6 °F 15.2 °F 3.2 °F 37% 30.11 in 10.0 mi WNW 13.8 mph 31.1 mph N/A   Clear
7:55 AM 26.6 °F 14.7 °F 3.2 °F 37% 30.12 in 10.0 mi NW 15.0 mph 29.9 mph N/A   Partly Cloudy
8:15 AM 26.6 °F 15.2 °F 1.4 °F 34% 30.13 in 10.0 mi WNW 13.8 mph 24.2 mph N/A   Clear
8:35 AM 26.6 °F 13.1 °F 1.4 °F 34% 30.14 in 10.0 mi WNW 19.6 mph 27.6 mph N/A   Clear
8:55 AM 26.6 °F 14.7 °F 1.4 °F 34% 30.14 in 10.0 mi NW 15.0 mph 27.6 mph N/A   Clear
9:15 AM 26.6 °F 13.4 °F 1.4 °F 34% 30.14 in 10.0 mi WNW 18.4 mph 26.5 mph N/A   Clear
9:35 AM 28.4 °F 17.0 °F 3.2 °F 34% 30.15 in 10.0 mi NW 15.0 mph 23.0 mph N/A   Clear
9:55 AM 28.4 °F 16.2 °F 1.4 °F 31% 30.15 in 10.0 mi WNW 17.3 mph 26.5 mph N/A   Clear
10:15 AM 30.2 °F 18.9 °F 3.2 °F 32% 30.16 in 10.0 mi NW 16.1 mph 21.9 mph N/A   Clear
10:35 AM 28.4 °F 17.0 °F 1.4 °F 31% 30.17 in 10.0 mi NW 15.0 mph 20.7 mph N/A   Clear
10:55 AM 30.2 °F 17.8 °F 1.4 °F 29% 30.18 in 10.0 mi NW 19.6 mph 28.8 mph N/A   Clear
11:15 AM 30.2 °F 18.9 °F 1.4 °F 29% 30.18 in 10.0 mi WNW 16.1 mph 25.3 mph N/A   Clear
11:35 AM 30.2 °F 18.1 °F -0.4 °F 27% 30.19 in 10.0 mi NW 18.4 mph 34.5 mph N/A   Clear
11:55 AM 32.0 °F 19.2 °F 1.4 °F 27% 30.19 in 10.0 mi West 23.0 mph 34.5 mph N/A   Clear
12:15 PM 32.0 °F 19.8 °F -0.4 °F 25% 30.19 in 10.0 mi NW 20.7 mph 27.6 mph N/A   Clear
12:35 PM 33.8 °F 23.2 °F 1.4 °F 25% 30.19 in 10.0 mi NW 17.3 mph 35.7 mph N/A   Clear
12:55 PM 33.8 °F 25.8 °F -0.4 °F 23% 30.20 in 10.0 mi West 10.4 mph 25.3 mph N/A   Clear
1:15 PM 35.6 °F 26.6 °F 1.4 °F 24% 30.20 in 10.0 mi WNW 13.8 mph 23.0 mph N/A   Clear
1:35 PM 35.6 °F 26.2 °F 1.4 °F 24% 30.20 in 10.0 mi WNW 15.0 mph 21.9 mph N/A   Clear
1:55 PM 35.6 °F 25.9 °F -0.4 °F 22% 30.20 in 10.0 mi NW 16.1 mph 25.3 mph N/A   Clear
2:15 PM 35.6 °F 29.2 °F 1.4 °F 24% 30.20 in 10.0 mi WNW 8.1 mph 23.0 mph N/A   Clear
2:35 PM 37.4 °F 28.5 °F -0.4 °F 20% 30.19 in 10.0 mi NW 15.0 mph 25.3 mph N/A   Clear
2:55 PM 37.4 °F 27.8 °F -0.4 °F 20% 30.19 in 10.0 mi West 17.3 mph 24.2 mph N/A   Clear
3:15 PM 37.4 °F 30.8 °F -0.4 °F 20% 30.19 in 10.0 mi WNW 9.2 mph 24.2 mph N/A   Clear
3:35 PM 39.2 °F 31.6 °F -0.4 °F 19% 30.19 in 10.0 mi NW 12.7 mph 20.7 mph N/A   Clear
3:55 PM 39.2 °F 32.0 °F 1.4 °F 21% 30.19 in 10.0 mi NW 11.5 mph 19.6 mph N/A   Clear
4:15 PM 39.2 °F 31.2 °F 1.4 °F 21% 30.19 in 10.0 mi WNW 13.8 mph 17.3 mph N/A   Clear
4:35 PM 39.2 °F 31.2 °F -0.4 °F 19% 30.20 in 10.0 mi NW 13.8 mph 23.0 mph N/A   Clear
4:55 PM 39.2 °F 32.0 °F -0.4 °F 19% 30.20 in 10.0 mi NW 11.5 mph 23.0 mph N/A   Clear
5:35 PM 41.0 °F 34.3 °F -0.4 °F 18% 30.22 in 10.0 mi NW 11.5 mph - N/A   Clear
5:55 PM 39.2 °F 33.0 °F -0.4 °F 19% 30.23 in 10.0 mi NW 9.2 mph - N/A   Clear
6:15 PM 39.2 °F 32.0 °F 1.4 °F 21% 30.23 in 10.0 mi WNW 11.5 mph - N/A   Clear
6:35 PM 39.2 °F 34.2 °F 1.4 °F 21% 30.24 in 10.0 mi West 6.9 mph - N/A   Clear
6:55 PM 37.4 °F 32.1 °F 1.4 °F 22% 30.25 in 10.0 mi West 6.9 mph - N/A   Clear
7:15 PM 37.4 °F 33.8 °F 1.4 °F 22% 30.25 in 10.0 mi West 4.6 mph - N/A   Clear
7:35 PM 37.4 °F 33.8 °F 1.4 °F 22% 30.26 in 10.0 mi West 4.6 mph - N/A   Clear
7:55 PM 35.6 °F - 1.4 °F 24% 30.27 in 10.0 mi Calm Calm - N/A   Clear
8:15 PM 32.0 °F - 3.2 °F 30% 30.28 in 10.0 mi Calm Calm - N/A   Clear
8:35 PM 32.0 °F - 5.0 °F 32% 30.28 in 10.0 mi Calm Calm - N/A   Clear
8:55 PM 30.2 °F - 6.8 °F 37% 30.29 in 10.0 mi Calm Calm - N/A   Clear
9:15 PM 30.2 °F - 8.6 °F 40% 30.29 in 10.0 mi Calm Calm - N/A   Clear
9:35 PM 28.4 °F - 8.6 °F 43% 30.30 in 10.0 mi Calm Calm - N/A   Clear
9:55 PM 28.4 °F - 8.6 °F 43% 30.30 in 10.0 mi Calm Calm - N/A   Clear
10:15 PM 28.4 °F - 8.6 °F 43% 30.31 in 10.0 mi Calm Calm - N/A   Clear
10:35 PM 28.4 °F - 8.6 °F 43% 30.31 in 10.0 mi Calm Calm - N/A   Clear
10:55 PM 28.4 °F - 8.6 °F 43% 30.30 in 10.0 mi Calm Calm - N/A   Clear
11:15 PM 28.4 °F - 8.6 °F 43% 30.30 in 10.0 mi Calm Calm - N/A   Clear
11:35 PM 26.6 °F - 8.6 °F 47% 30.30 in 10.0 mi Calm Calm - N/A   Clear
11:55 PM 26.6 °F - 10.4 °F 51% 30.29 in 10.0 mi Calm Calm - N/A   Clear